Location: Breungeshain
(50.5000°N, 9.2000°E)
Time: 09:49:25
(UTC+00:00)

ISS - Pass Details

Date: 25 May 2017
Orbit: 402 x 409 km, 51.6° (Epoch: 24 May)

Event Time Altitude Azimuth Distance (km) Brightness Sun altitude
Rises 00:40:24 0° 284° (WNW) 2,332 0.0 -16.4°
Reaches altitude 10° 00:42:29 10° 284° (WNW) 1,469 -1.1 -16.3°
Maximum altitude 00:45:47 84° 196° (SSW) 413 -4.0 -16.1°
Drops below altitude 10° 00:49:03 10° 108° (ESE) 1,461 -1.0 -15.9°
Sets 00:51:08 0° 108° (ESE) 2,318 0.1 -15.8°
